Location: Laterina
(43.5167°N, 11.7167°E)
Time: 13:14:43
(UTC+00:00)

Cosmos 2026 Rocket - Pass Details

Date: 22 January 2021
Orbit: 940 x 1000 km, 82.9° (Epoch: 28 February)

Event Time Altitude Azimuth Distance (km) Brightness Sun altitude
Rises 18:33:04 0° 195° (SSW) 3,599 7.2 -25.5°
Reaches altitude 10° 18:35:34 10° 199° (SSW) 2,664 6.5 -25.9°
Maximum altitude 18:41:35 64° 280° (W) 1,057 4.3 -27.0°
Drops below altitude 10° 18:47:46 10° 2° (N) 2,720 6.3 -28.1°
Sets 18:50:21 0° 6° (N) 3,680 7.0 -28.6°
